Midori-2

operational
NORAD ID: 27597 Int'l Des: 2002-056 Owner: NASDA Country: J
LEOCIRCULARRETROGRADESSO

About Midori-2

Description loading...

Live Position

Loading 3D Globe...

Upcoming Passes

Altitude History

Altitude vs Time

uPlot chart will show altitude changes over time

Two-Line Element Set

1 27597U 02056A 26061.17317097 .00000319 00000-0 14312-3 0 9990
2 27597 98.7755 19.5995 0001850 53.9333 306.2019 14.29277973209228
Epoch: Mar 2, 2026 • Age: 29 hours

Current Status

Altitude 822.8 km
Velocity 7.44 km/s
Sub-Earth Point -76.19°S, 72.3°W
Launch Date Dec 14, 2002
Age 23.2 years
Type other

Technical Details

Classification Payload
Mass 3680.00 kg
Dry Mass 3500.00 kg
Total Mass 3680.00 kg
Length 6.00 m
Diameter 4.00 m
Span 28.00 m
Shape Irr + Pan
Manufacturer MELCO
Bus Type ADEOS
Phase Status In Orbit
Owner/State NASDA/J

Large Constellations

Loading constellations...